GFSFLT2_850_spd_135.txt.gz
Wind_Speed
24 19 18 18 18 17 20 23 25 28 31 33 35 36 37 38 39 39 39 39 39 40 39 37 37 40 38
15 13 16 19 22 23 23 23 25 26 28 29 31 32 33 35 35 36 36 34 34 35 35 35 35 38 40
18 20 22 23 20 19 21 23 21 22 23 24 25 26 28 30 30 30 30 30 32 32 33 34 35 36 37
11 13 15 18 20 23 22 21 20 20 21 21 22 25 27 27 26 26 27 25 27 29 29 30 33 34 36
11 12 14 16 18 20 23 25 22 21 22 20 23 22 20 22 24 22 23 24 26 27 28 30 32 35 36
10 12 14 16 18 20 21 23 25 20 28 24 26 21 19 20 19 20 21 21 20 23 25 26 30 31 33
11 13 16 18 21 21 19 19 20 24 26 31 25 22 20 18 18 16 13 16 22 24 27 27 30 31 30
13 15 17 19 21 20 22 22 24 23 22 27 23 26 25 21 16 11 13 22 23 26 28 26 25 26 25
14 17 18 20 21 21 22 23 26 25 20 16 25 31 28 24 12 11 28 24 23 26 23 22 20 17 19
13 15 17 19 20 19 18 18 20 18 11 23 27 27 20 18 24 28 26 23 24 23 18 15 13 8 10
17 18 18 18 19 18 17 16 17 19 21 20 26 25 23 28 33 29 25 28 23 22 19 15 16 18 17
18 19 20 20 20 18 17 18 15 18 17 15 22 21 23 28 31 31 29 25 22 16 20 16 14 17 19
19 20 20 21 20 20 18 16 17 15 13 12 16 19 21 25 29 30 29 27 14 21 18 17 17 16 18
20 20 19 19 19 20 20 20 21 19 14 13 15 18 21 21 24 25 20 20 22 19 20 17 16 14 12
18 19 19 20 19 18 16 18 20 21 20 13 12 17 18 19 23 20 17 20 19 20 19 16 10 11 10
16 17 19 20 20 19 19 19 20 21 20 17 17 20 20 18 15 16 17 19 20 16 14 11 10 11 12
14 15 17 19 20 20 19 19 20 20 19 17 18 19 20 23 20 14 16 20 18 11 8 11 12 10 13

GFSFLT2_850_spd_138.txt.gz
Wind_Speed
19 24 22 23 20 15 17 19 19 20 24 29 28 30 32 34 36 36 35 36 37 37 37 36 35 35 35
18 14 13 17 16 19 22 24 22 24 24 24 25 28 28 30 31 30 31 33 33 33 33 33 34 35 34
9 12 13 17 18 17 17 18 18 20 20 21 22 23 24 26 27 28 28 29 29 28 29 30 30 30 31
9 10 11 13 15 17 17 17 17 18 19 19 19 21 23 25 26 26 26 25 25 26 26 26 27 29 30
8 10 12 13 15 17 19 20 18 19 18 17 21 20 20 20 20 20 21 21 22 19 20 23 26 28 29
7 8 10 12 15 18 20 22 23 19 26 24 23 20 18 17 18 20 21 18 15 19 24 28 30 29 30
9 11 12 14 16 18 18 18 20 22 26 28 23 20 18 17 17 18 15 13 19 26 28 29 29 24 25
10 12 14 16 16 18 19 22 22 20 19 24 20 21 19 18 15 13 10 17 26 25 24 25 19 22 22
12 13 14 16 16 19 20 22 24 23 15 12 18 27 24 17 6 17 22 22 20 23 21 22 19 20 16
11 13 14 15 17 18 19 20 20 18 13 23 25 23 15 9 25 22 26 23 25 20 19 19 20 21 19
12 13 15 16 17 18 17 18 19 20 18 16 22 23 22 27 29 31 29 29 26 20 15 17 19 17 22
13 13 15 16 17 16 16 16 17 21 18 13 20 20 22 28 33 31 30 26 24 15 20 19 18 18 19
14 14 16 17 18 19 17 17 16 16 14 13 15 17 20 25 30 31 31 29 12 25 22 21 22 20 21
14 14 15 16 17 19 19 19 20 16 12 9 11 14 20 22 24 27 24 20 23 22 23 22 19 17 16
13 14 15 16 16 17 18 19 20 20 19 15 11 15 17 19 22 19 20 19 19 24 23 22 11 14 15
12 12 14 16 17 17 17 19 20 19 20 20 18 17 19 17 13 18 17 19 23 21 19 19 15 10 13
11 11 13 15 18 18 18 19 19 19 18 19 19 16 20 23 22 17 23 20 23 19 13 14 16 12 21

GFSFLT2_850_spd_144.txt.gz
Wind_Speed
13 14 18 20 21 21 21 24 24 23 22 22 26 29 29 28 27 27 27 27 27 30 33 33 32 34 35
15 16 16 18 19 21 21 21 21 20 21 22 22 24 19 25 26 25 26 27 28 31 31 30 31 31 31
15 16 18 19 18 16 15 16 21 22 20 19 20 19 21 24 26 27 27 28 29 29 28 29 28 28 27
9 10 11 11 12 12 13 15 16 18 17 17 16 17 20 24 26 27 28 29 27 25 24 23 24 26 27
5 5 6 6 8 9 11 12 13 11 13 16 20 21 21 22 22 23 24 23 22 18 17 20 25 27 26
2 3 4 6 7 9 11 12 10 13 19 20 16 18 18 19 19 23 24 20 13 18 21 25 27 28 30
1 2 4 6 7 8 10 12 14 16 18 21 19 16 18 21 22 23 20 15 19 20 23 26 28 29 31
3 4 5 6 7 9 12 14 16 15 14 18 18 22 24 21 18 17 11 12 21 22 24 27 29 30 30
5 6 7 8 9 12 13 16 16 11 15 16 21 28 26 18 14 8 13 24 20 21 24 25 26 28 30
8 9 9 10 12 13 15 16 17 14 14 21 22 21 20 17 19 27 25 23 24 24 24 22 21 24 28
10 10 11 11 12 13 14 15 16 18 17 20 23 22 16 22 26 27 27 30 29 26 24 18 19 24 29
10 12 12 13 13 13 14 14 15 17 18 18 22 22 22 26 29 30 29 30 28 25 20 28 25 26 25
12 13 14 14 14 12 12 13 14 15 15 16 18 19 21 27 31 32 31 32 21 24 27 27 28 28 27
15 15 15 14 13 12 12 13 15 14 14 13 16 19 23 25 26 28 26 23 28 26 28 28 27 21 21
16 16 14 12 12 11 12 14 16 17 17 16 16 18 21 22 25 20 20 22 25 26 29 30 24 19 18
16 14 11 11 10 10 12 14 16 17 17 17 19 22 21 17 15 17 18 22 24 26 26 27 27 20 19
15 13 11 11 10 11 11 13 17 18 16 16 17 19 21 19 20 14 24 26 26 26 24 23 26 23 17

GFSFLT2_850_spd_147.txt.gz
Wind_Speed
11 12 14 14 16 18 19 19 19 23 23 23 23 24 25 27 25 23 24 26 24 27 27 28 28 27 28
13 14 14 15 19 18 18 19 18 17 18 17 19 21 21 22 23 23 24 24 25 25 25 25 26 26 27
12 13 15 16 16 17 17 16 17 17 17 18 18 19 18 20 21 21 22 24 26 25 24 24 25 26 24
10 11 12 12 12 13 12 13 13 14 15 14 13 15 17 19 20 21 22 24 24 23 23 22 21 23 25
6 6 7 8 9 10 10 11 10 10 12 12 16 17 16 17 17 19 21 22 21 20 21 23 24 27 28
3 4 4 5 6 8 10 11 9 12 18 16 13 14 14 17 19 22 24 24 20 20 21 23 22 26 28
3 4 5 5 6 8 9 11 13 15 17 17 17 15 18 20 21 22 21 17 16 15 21 23 27 28 30
5 5 6 7 8 10 11 12 13 13 13 17 17 21 23 22 17 16 15 15 16 24 29 26 28 30 31
7 7 8 8 9 10 11 12 12 10 15 16 20 26 25 17 13 12 21 21 21 21 23 24 25 27 29
9 8 9 9 9 10 11 12 14 10 15 20 22 23 19 14 20 23 24 23 24 26 23 23 22 23 25
10 11 10 10 11 12 12 13 14 14 14 20 23 22 17 24 29 27 26 29 26 25 23 19 22 24 26
11 12 12 12 12 12 12 12 13 16 17 17 21 21 22 28 30 30 28 27 26 21 23 27 25 25 25
12 13 13 13 14 12 12 12 13 14 15 16 18 19 21 26 31 34 32 30 21 25 27 29 29 29 28
14 16 15 15 14 12 11 12 13 13 14 14 15 18 21 23 28 31 26 21 28 28 30 30 30 27 23
16 17 16 15 13 12 11 12 12 13 14 14 16 18 20 21 24 23 19 23 23 29 30 32 30 27 23
17 17 16 14 12 12 11 11 12 13 15 15 18 21 22 20 13 22 20 24 30 29 28 30 32 27 23
17 17 16 13 11 11 11 11 12 14 14 15 16 18 22 24 29 16 19 26 26 28 28 27 30 26 20

GFSFLT2_850_spd_153.txt.gz
Wind_Speed
7 8 8 8 8 7 11 11 12 10 12 14 14 13 13 13 15 16 15 17 17 17 18 18 19 18 20
9 10 9 9 9 8 10 13 13 12 11 11 12 12 13 13 13 13 14 14 14 14 16 17 17 18 19
7 8 8 7 6 8 10 10 9 9 10 10 10 10 10 12 12 12 13 13 14 14 15 16 16 15 14
7 6 6 6 6 6 5 6 6 4 5 7 8 9 10 10 11 12 13 14 15 16 16 16 16 16 15
6 6 6 5 6 5 4 5 4 3 5 7 6 6 7 8 11 13 15 15 15 15 15 14 14 13 14
6 6 5 5 5 4 4 3 3 5 7 7 6 6 9 12 13 14 14 13 12 12 14 14 16 18 21
6 5 5 4 5 5 6 6 6 7 8 7 6 8 13 14 13 10 8 10 16 16 17 17 16 18 20
6 6 6 6 6 6 7 7 9 9 10 7 10 12 13 12 9 6 15 16 16 17 19 20 21 21 23
9 9 9 9 9 9 7 6 8 11 11 10 13 15 12 7 4 15 18 16 17 20 20 20 20 22 23
10 10 10 10 10 9 9 9 8 9 8 12 12 13 8 5 10 16 14 16 20 19 18 17 15 19 22
12 12 12 11 10 9 10 10 9 8 12 12 12 13 14 19 16 16 20 21 18 16 12 16 17 18 23
15 14 13 12 10 11 11 11 11 9 10 12 13 15 18 22 23 22 20 19 16 12 21 20 19 21 23
16 16 14 13 13 12 12 12 11 11 11 11 13 15 16 19 25 25 27 23 11 23 21 24 23 24 25
17 15 14 13 13 13 13 12 10 11 12 13 14 16 18 19 20 22 16 19 22 22 26 27 23 22 21
17 16 14 14 12 12 13 13 11 11 12 14 14 16 18 19 18 11 17 19 21 27 27 29 26 21 22
19 17 15 13 12 14 13 13 12 12 11 13 14 15 17 16 12 16 13 22 25 23 24 28 31 25 22
19 17 15 14 13 13 13 13 12 11 11 12 12 14 16 20 21 13 21 22 25 25 27 28 32 29 24

GFSFLT2_850_spd_159.txt.gz
Wind_Speed
19 19 18 15 12 12 11 11 13 12 10 9 8 7 9 9 9 9 9 10 10 11 12 13 14 16 17
15 15 15 14 14 12 13 12 15 13 9 7 7 7 9 10 10 10 9 9 9 10 12 13 14 15 17
15 15 14 13 13 14 12 12 11 10 9 8 8 7 6 6 6 6 7 8 9 10 11 13 15 16 17
17 15 14 13 12 13 12 11 10 9 7 6 7 6 6 6 6 6 8 9 11 13 15 16 17 17 17
16 15 14 14 13 12 11 10 8 7 7 6 7 6 6 7 8 10 12 14 15 15 15 15 16 17 18
16 16 14 13 12 11 9 8 7 8 8 8 8 7 8 9 11 13 15 15 14 15 16 18 19 20 21
16 15 14 12 11 11 10 9 9 9 9 8 8 10 9 11 12 14 14 12 13 17 18 17 18 21 22
15 14 14 12 12 11 11 11 10 11 9 9 9 10 11 12 14 12 10 11 18 18 17 21 23 22 22
16 15 14 14 13 13 13 12 11 11 10 11 10 9 11 13 13 12 11 16 18 17 22 21 22 22 23
17 16 16 16 16 15 15 14 13 10 10 9 9 9 6 8 9 10 14 17 18 22 22 21 20 21 24
20 19 18 16 15 14 13 14 14 13 12 12 11 12 10 10 10 13 16 14 20 21 20 19 19 24 25
23 22 20 17 16 16 15 15 14 15 15 14 15 14 15 15 13 10 14 16 19 18 15 18 21 22 23
26 23 19 17 19 18 17 17 17 16 17 17 16 16 15 16 18 16 20 19 12 11 23 23 23 21 22
25 20 21 22 20 19 18 17 17 17 18 18 17 17 17 15 18 19 17 17 18 20 24 25 22 20 22
26 24 23 22 21 19 18 18 17 17 17 18 18 18 17 17 19 16 18 20 19 22 26 29 24 21 19
27 24 23 22 20 20 19 18 16 16 17 18 19 19 18 16 17 16 18 20 20 21 23 28 29 22 20
30 26 24 22 22 21 20 18 16 13 15 18 17 17 16 17 16 15 18 21 23 22 22 23 27 24 22